Regional Weather Roundup
Issued by NWS

Home | Current Version | Previous Version | Graphics & Text | Print | Product List | Glossary On
Versions: 1 2 3 4 5 6 7 8 9 10 11 12 13 14 15 16 17 18 19 20 21 22 23 24 25 26 27
000
ASUS45 KTFX 212210
RWRMT
MONTANA REGIONAL WEATHER ROUNDUP
NATIONAL WEATHER SERVICE GREAT FALLS MT
400 PM MDT THU SEP 21 2017

NOTE: "FAIR" INDICATES FEW OR NO CLOUDS BELOW 12000 FEET WITH NO
SIGNIFICANT WEATHER AND/OR OBSTRUCTIONS TO VISIBILITY.

MTZ001>007-043-212300-
WEST OF THE DIVIDE

CITY           SKY/WX    TMP DP  RH WIND       PRES   REMARKS
KALISPELL      CLOUDY    53  33  46 S7        29.86R
MISSOULA       CLOUDY    51  32  48 NW7       29.87R
BUTTE          CLOUDY    43  27  53 VRB3      29.86S
MULLAN PASS    CLOUDY    34  31  88 CALM      29.88R
ANACONDA         N/A     46  25  42 N5        29.85R
DEER LODGE       N/A     48  25  40 CALM      29.87R
EUREKA           N/A     46  43  87 CALM      29.90R
HAMILTON         N/A     52  28  40 N3        29.84S
LIBBY            N/A     54  36  50 CALM      29.86S
PLAINS           N/A     55  32  41 CALM      29.90R
$$

MTZ008-052>055-212300-
SOUTHWEST MONTANA

CITY           SKY/WX    TMP DP  RH WIND       PRES   REMARKS
BOZEMAN        CLOUDY    46  33  60 MISG      29.87R
DILLON         CLOUDY    40  34  79 E6        29.86R
W YELLOWSTONE  CLOUDY    39  37  93 W8G16     29.83S
ENNIS          LGT RAIN  39  36  87 N13G18    29.90S WCI  32
THREE FORKS      N/A     47  31  54 E3        29.89R
TWIN BRIDGES     N/A     43  30  60 CALM      29.87S
$$

MTZ009-010-012-014-046-048-049-054-212300-
EAST SLOPES AND CENTRAL MONTANA

CITY           SKY/WX    TMP DP  RH WIND       PRES   REMARKS
CUT BANK       LGT RAIN  45  34  65 NE12      29.89R
GREAT FALLS    CLOUDY    54  28  36 NE6       29.85R
MALMSTROM AFB  CLOUDY    53  29  40 E6        29.85S
HELENA         CLOUDY    53  27  36 NE6       29.84R
BOWMANS CRNR   PTSUNNY   49  26  39 E7        29.83R
CHOTEAU          N/A     52  28  40 VRB5      29.87R
FAIRFIELD        N/A     52  28  38 E8        29.84R
POWER            N/A     51  26  37 N7        29.85R
RAYNESFORD     PTSUNNY   51  25  35 N3        29.86R
ULM            PTSUNNY   54  24  32 N6        29.84S
$$

MTZ011-013-016-021-045-047-050-051-212300-
NORTH CENTRAL MONTANA

CITY           SKY/WX    TMP DP  RH WIND       PRES   REMARKS
HAVRE          CLOUDY    55  31  39 W6        29.87R
LEWISTOWN      CLOUDY    50  26  39 NW5       29.85F
N BAR RANCH    CLOUDY    50  27  40 NW5       29.88R
CHINOOK          N/A     57  30  35 W9G18     29.86R
DENTON           N/A     51  29  42 CALM      29.83S
GEYSER         PTSUNNY   50  30  46 NE7       29.86R
GRASS RANGE    PTSUNNY   51  29  42 E3        29.83R
JUDITH GAP     PTSUNNY   48  26  41 N3        29.86R
WINIFRED         N/A     51  29  41 NW5       29.86R
$$

MTZ017>020-022>027-061-062-212300-
NORTHEAST MONTANA

CITY           SKY/WX    TMP DP  RH WIND       PRES   REMARKS
GLASGOW        CLOUDY    59  33  37 W13       29.83R
JORDAN           N/A     57  33  40 NW8       29.84R
SIDNEY         PTSUNNY   61  34  36 N12       29.79S
WOLF POINT     CLOUDY    63  30  28 W9        29.80S
MALTA          SUNNY     59  30  33 NW13      29.84R
POPLAR           N/A     61  36  39 SW5       29.80S
SCOBEY           N/A     60  31  33 NW2       29.80R
$$

MTZ028>42-056>058-212300-
SOUTHCENTRAL AND SOUTHEAST MONTANA

CITY           SKY/WX    TMP DP  RH WIND       PRES   REMARKS
BAKER          SUNNY     65  33  30 NW10G22   29.80R
BILLINGS       CLOUDY    49  41  74 E6        29.86R
LIVINGSTON     CLOUDY    47  34  60 NE3       29.86R
MILES CITY     CLOUDY    55  36  48 NW9       29.83S
BIG TIMBER     PTSUNNY   46  37  71 NW7       29.88S
EKALAKA          N/A     61  33  34 N12       29.80R
HARLOWTON      CLOUDY    50  27  41 MISG      29.86R
LAUREL           N/A     50  41  71 E5        29.86S
$$

REGIONAL REPORTS...DAKOTAS

CITY           SKY/WX    TMP DP  RH WIND       PRES   REMARKS
WILLISTON      PTSUNNY   63  38  39 NW9       29.78R
MINOT          SUNNY     71  45  39 N10       29.70R
DICKINSON      SUNNY     69  42  37 NW13      29.72S
BEACH            N/A     63  28  27 NW18      29.81S
CROSBY         PTSUNNY   61  36  39 NW10G17   29.78R
TIOGA            N/A     59  36  41 N13       29.79R
WATFORD CITY     N/A     63  39  42 NW9G17    29.77R
BISMARCK       SUNNY     79  52  38 NW10      29.65R
GRAND FORKS    MOSUNNY   81  47  30 SE18      29.67F
FARGO          MOSUNNY   80  54  40 SE12G20   29.67F
BUFFALO SD       N/A     72  39  30 NE10      29.67S
RAPID CITY     SUNNY     75  39  27 N18       29.69S
$$

REGIONAL REPORTS...WYOMING/IDAHO/WASHINGTON

CITY           SKY/WX    TMP DP  RH WIND       PRES   REMARKS
GILLETTE       SUNNY     65  40  39 N14       29.75F
SHERIDAN       CLOUDY    51  41  68 NW13      29.83R
BUFFALO WY     MOSUNNY   53  39  59 NW13      29.82S
CODY           LGT RAIN  42  38  85 N12       29.84R
IDAHO FALLS    LGT RAIN  42  38  85 S3        29.84R
SALMON         CLOUDY    51  29  42 CALM      29.81F
BOISE          PTSUNNY   56  34  43 NW8       29.80F
SPOKANE        PTSUNNY   50  42  74 E3        29.90R
$$

REGIONAL REPORTS...ALBERTA

CITY           SKY/WX    TMP DP  RH WIND       PRES   REMARKS
EDMONTON       LGT RAIN  39  39 100 N12G17    29.93R WCI  32
CALGARY        LGT RAIN  37  34  87 N15G21    29.92R FOG     WCI  28
LETHBRIDGE     CLOUDY    48  30  49 N15G24    29.90R
MEDICINE HAT   PTSUNNY   50  30  46 W15G23    29.86R
$$

REGIONAL REPORTS...SASKATCHEWAN

CITY           SKY/WX    TMP DP  RH WIND       PRES   REMARKS
SWIFT CURRENT  CLOUDY    50  30  46 W15G21    29.82R
REGINA         MOSUNNY   57  37  47 NW12G20   29.79R
SASKATOON      PTSUNNY   50  39  66 SW16G23   29.77R
$$




USA.gov is the U.S. government's official web portal to all federal, state and local government web resources and services.